Regional Weather Roundup
Issued by NWS

Home | Current Version | Previous Version | Text Only | Print | Product List | Glossary Off
Versions: 1 2 3 4 5 6 7 8 9 10 11 12 13 14 15 16 17 18 19 20 21 22 23 24 25 26 27 28 29 30 31 32 33 34 35 36 37 38 39 40 41 42 43 44 45 46 47 48 49 50

000
ASUS43 KLOT 280412
RWRIL

ILLINOIS REGIONAL WEATHER ROUNDUP
NATIONAL WEATHER SERVICE CHICAGO/ROMEOVILLE IL
1100 PM CDT MON JUL 27 2015

NOTE: "FAIR" INDICATES FEW OR NO CLOUDS BELOW 12,000 FEET WITH NO
SIGNIFICANT WEATHER AND/OR OBSTRUCTIONS TO VISIBILITY.

* THESE STATIONS ARE NOT UNDER NWS QUALITY CONTROL. THEY ALSO MAY NOT
  REPORT WEATHER SUCH AS PRECIPITATION OR FOG.

ILZ001-002-007-009-015-016-024-280500-
NORTHWEST ILLINOIS

CITY           SKY/WX    TMP DP  RH WIND       PRES   REMARKS
MOLINE         CLOUDY    75  72  90 E7        29.94F
STERLING*      CLOUDY    73  70  88 E6        29.97F
SAVANNA*       MOCLDY    75  69  81 E3        29.97F
$$

ILZ003-004-008-010-011-017-018-280500-
NORTH CENTRAL ILLINOIS

CITY           SKY/WX    TMP DP  RH WIND       PRES   REMARKS
ROCKFORD       MOCLDY    74  64  71 SE7       30.01F
FREEPORT*      MOCLDY    69  65  88 SE6       30.01F
ROCHELLE*      MOCLDY    70  66  89 E3        30.01S
DE KALB*       MOCLDY    68  63  84 E6        30.03S
PERU*          CLOUDY    77  64  65 E7        29.99F
$$

ILZ005-006-012>014-019>023-280500-
NORTHEAST ILLINOIS

CITY           SKY/WX    TMP DP  RH WIND       PRES   REMARKS
CHICAGO-OHARE  MOCLDY    74  65  73 E6        30.02R
CHICAGO-MIDWAY CLOUDY    78  66  66 E7        30.02R HX  80
AURORA         MOCLDY    72  63  73 E5        30.01S
LANSING*       PTCLDY    73  64  73 CALM      30.02S
JOLIET*        MOCLDY    75  66  74 NE7       30.00F
WAUKEGAN       MOCLDY    70  66  87 NE5       30.02S
DUPAGE AIRPORT MOCLDY    74  63  68 E6        30.01F
KANKAKEE*      MOCLDY    72  69  88 NE6       30.00F
WHEELING       MOCLDY    73  66  78 CALM      30.03R
MORRIS*        MOCLDY    74  65  74 E3        29.99S
ROMEOVILLE*    MOCLDY    73  63  70 E7        30.01F
NORTHERLY ISL    N/A     73  68  84 CALM        N/A
$$

LMZ740>746-280500-
SOUTHERN LAKE MICHIGAN

STATION/POSITION SKY/WX   TEMP    WIND        PRES    VSBY  WAVE
                          AIR SEA DIR/SP/G                  HT/PER
                          (F)     (DEG/KT/KT) (MB)    (MI)  (FT/S)
HARRISON CRIB              74      60/ 11/ 13   N/A
BURNHAM HARBOR             73     170/  1/  4   N/A
CALUMET HARBOR             75      70/  4/  5   N/A
BURNS HARBOR               73      80/  9/ 11 1016.9R
MICHIGAN CITY              73      40/ 10/ 11   N/A
MICHIGAN CITY 6N           74 75   80/  8/ 10   N/A           2/ 3
ST. JOSEPH                 74 74  110/  6/  6   N/A           1/ 3
$$

ILZ025>027-034>036-040-047-049-050-058-095>099-280500-
WEST-CENTRAL ILLINOIS

CITY           SKY/WX    TMP DP  RH WIND       PRES   REMARKS
QUINCY         CLOUDY    73  71  93 CALM      29.93F
GALESBURG*     CLOUDY    76  72  87 E3        29.95S
MACOMB*        CLOUDY    74  73  98 SE6       29.96F
JACKSONVILLE*  CLOUDY    75  73  93 E5        29.93F
PITTSFIELD*    CLOUDY    73  71  93 CALM      29.95R
$$

ILZ028>032-037-038-041>044-048-051>054-059>061-280500-
CENTRAL ILLINOIS

CITY           SKY/WX    TMP DP  RH WIND       PRES   REMARKS
PONTIAC        CLOUDY    76  72  88 E6        29.99F
BLOOMINGTON    CLOUDY    76  74  93 E6        29.99F
DECATUR        CLOUDY    75  72  90 E3        29.97F
PEORIA         CLOUDY    80  72  76 E6        29.95F HX  84
LACON*         CLOUDY    78  69  75 E6        29.96F HX  80
LINCOLN*       CLOUDY    77  73  86 CALM      29.96S
SPRINGFIELD    LGT RAIN  79  76  90 S3        29.95F HX  83
TAYLORVILLE    LGT RAIN  77  73  88 NE6       29.96S
$$

ILZ033-039-045-046-055>057-062-063-280500-
EAST-CENTRAL ILLINOIS

CITY           SKY/WX    TMP DP  RH WIND       PRES   REMARKS
CHAMPAIGN      CLOUDY    76  72  87 NE3       29.98F
DANVILLE*      CLOUDY    74  73  95 NE3       29.96F
RANTOUL*       CLOUDY    78  75  90 E6        29.98F HX  80
MATTOON        CLOUDY    77  71  82 E3        29.97F
PARIS*         CLOUDY    74  73  97 CALM      29.99S FOG
$$

ILZ079-100>102-280500-
SOUTHWEST ILLINOIS

CITY           SKY/WX    TMP DP  RH WIND       PRES   REMARKS
ALTON          CLOUDY    72  69  93 S3        29.96F
BELLEVILLE     CLOUDY    75  75  98 W5        29.96F
CAHOKIA*       CLOUDY    77  71  82 S5        29.97F
SPARTA*        CLOUDY    76  74  93 N5        30.00R
$$

ILZ064>066-069>071-074>076-080>082-084>086-088>090-092>094-280500-
SOUTH-CENTRAL ILLINOIS

CITY           SKY/WX    TMP DP  RH WIND       PRES   REMARKS
CARBONDALE     CLOUDY    76  73  91 CALM      29.97F
CAIRO*         CLOUDY    77  75  93 CALM      29.95F
EFFINGHAM*     CLOUDY    78  73  82 E3        29.99R HX  81
MARION         CLOUDY    77  75  94 CALM      29.98S
MT. VERNON     CLOUDY    75  70  83 CALM      29.98S
CENTRALIA*     CLOUDY    75  70  84 W6        29.98S
SALEM*         CLOUDY    79  72  79 SW7       29.98S HX  82
METROPOLIS*    CLOUDY    78  78 100 CALM      29.97S
$$

ILZ067-068-072-073-078-083-087-091-280500-
SOUTHEAST ILLINOIS

CITY           SKY/WX    TMP DP  RH WIND       PRES   REMARKS
LAWRENCEVILLE  CLOUDY    77  72  84 CALM      29.96F
FLORA*         CLOUDY    74  67  77 NW6G24    29.99R THUNDER
FAIRFIELD*     CLOUDY    76  74  93 SW3       29.96R
HARRISBURG*    CLOUDY    75  75 100 S3        29.98F
ROBINSON*      CLOUDY    75  72  92 SE3       29.97F
CARMI*         CLOUDY    75  70  84 CALM      29.96F
$$

ABBREVIATIONS USED IN REMARKS
   TC - TEMPERATURE IN CELSIUS
  WCI - WIND CHILL INDEX
   HX - HEAT INDEX
  VSB - VISIBILITY
$$



USA.gov is the U.S. government's official web portal to all federal, state and local government web resources and services.